Regional Weather Roundup
Issued by NWS

Home | Current Version | Previous Version | Text Only | Print | Product List | Glossary Off
Versions: 1 2 3 4 5 6 7 8 9 10 11 12 13 14 15 16 17 18 19 20 21 22 23 24 25 26 27 28 29 30 31 32 33 34 35 36 37 38 39 40 41 42 43 44 45 46 47 48 49 50

000
ASUS43 KBIS 240102
RWRND

NORTH DAKOTA REGIONAL WEATHER ROUNDUP
NATIONAL WEATHER SERVICE BISMARCK ND
800 PM CDT SUN APR 23 2017

NOTE: "FAIR" INDICATES FEW OR NO CLOUDS BELOW 12,000 FEET WITH NO
SIGNIFICANT WEATHER AND/OR OBSTRUCTIONS TO VISIBILITY.


NDZ001>003-009>011-017-240200-
NORTHWEST NORTH DAKOTA

CITY           SKY/WX    TMP DP  RH WIND       PRES   REMARKS
WILLISTON      CLOUDY    32  28  85 E21G26    29.86F WCI  20
MINOT          CLOUDY    31  27  85 E16G23    29.94F WCI  20
MINOT AFB      CLOUDY    31  27  87 E15       29.94F WCI  20
$$

NDZ018>021-031>035-040>046-240200-
SOUTHWEST NORTH DAKOTA

CITY           SKY/WX    TMP DP  RH WIND       PRES   REMARKS
BISMARCK       CLOUDY    36  32  85 E18       29.87S
DICKINSON      CLOUDY    35  31  85 E16       29.76F
GARRISON         N/A     29  26  89 E21G28    29.89F WCI  16
HETTINGER ARPT CLOUDY    43  36  76 NE17      29.76F
$$

NDZ004>008-012>016-024-026-027-054-240200-
NORTHEAST NORTH DAKOTA

CITY           SKY/WX    TMP DP  RH WIND       PRES   REMARKS
GRAND FORKS    CLOUDY    33  30  88 NE18G25   30.03S
GRND FRKS AFB  CLOUDY    30  28  93 E13       30.03S
DEVILS LAKE    FLURRIES  28  25  88 E18G28    29.98F WCI  15
$$

NDZ022-023-025-028>030-036>039-047>053-240200-
SOUTHEAST NORTH DAKOTA

CITY           SKY/WX    TMP DP  RH WIND       PRES   REMARKS
FARGO          CLEAR     38  32  79 NE20G28   29.92F
JAMESTOWN      CLOUDY    32  30  92 NE21G31   29.88F WCI  20
$$




USA.gov is the U.S. government's official web portal to all federal, state and local government web resources and services.